Time,TemperatureF,DewpointF,PressureIn,WindDirection,WindDirectionDegrees,WindSpeedMPH,WindSpeedGustMPH,Humidity,HourlyPrecipIn,Conditions,Clouds,dailyrainin,SoftwareType,DateUTC
2013-01-01 00:03:00,27.0,27.0,-100.00,WSW,240,7.0,9.0,99,-99.99,,,-99.99,,2013-01-01 05:03:00,
2013-01-01 00:12:00,27.0,27.0,-100.00,SW,235,4.0,9.0,99,-99.99,,,-99.99,,2013-01-01 05:12:00,
2013-01-01 00:22:00,27.0,27.0,-100.00,WSW,245,4.0,9.0,99,-99.99,,,-99.99,,2013-01-01 05:22:00,
2013-01-01 00:33:00,27.0,27.0,-100.00,SW,235,5.0,9.0,99,-99.99,,,-99.99,,2013-01-01 05:33:00,
2013-01-01 00:42:00,27.0,27.0,-100.00,WSW,240,6.0,8.0,99,-99.99,,,-99.99,,2013-01-01 05:42:00,
2013-01-01 00:52:00,27.0,27.0,-100.00,WSW,245,4.0,8.0,99,-99.99,,,-99.99,,2013-01-01 05:52:00,
2013-01-01 01:02:00,27.0,27.0,-100.00,WSW,240,5.0,7.0,99,-99.99,,,-99.99,,2013-01-01 06:02:00,
2013-01-01 01:12:00,27.0,27.0,-100.00,SW,235,5.0,7.0,99,-99.99,,,-99.99,,2013-01-01 06:12:00,
2013-01-01 01:22:00,27.0,27.0,-100.00,WSW,245,4.0,7.0,99,-99.99,,,-99.99,,2013-01-01 06:22:00,
2013-01-01 01:32:00,27.0,27.0,-100.00,WSW,245,5.0,7.0,99,-99.99,,,-99.99,,2013-01-01 06:32:00,
2013-01-01 01:42:00,27.0,27.0,-100.00,WSW,245,3.0,6.0,99,-99.99,,,-99.99,,2013-01-01 06:42:00,
2013-01-01 01:52:00,27.0,27.0,-100.00,WSW,250,4.0,6.0,99,-99.99,,,-99.99,,2013-01-01 06:52:00,
2013-01-01 02:02:00,27.0,27.0,-100.00,West,265,2.0,6.0,99,-99.99,,,-99.99,,2013-01-01 07:02:00,
2013-01-01 02:12:00,27.0,27.0,-100.00,WSW,255,2.0,4.0,99,-99.99,,,-99.99,,2013-01-01 07:12:00,
2013-01-01 02:22:00,27.0,27.0,-100.00,West,275,3.0,5.0,99,-99.99,,,-99.99,,2013-01-01 07:22:00,
2013-01-01 02:32:00,27.0,27.0,-100.00,West,280,2.0,4.0,99,-99.99,,,-99.99,,2013-01-01 07:32:00,
2013-01-01 02:42:00,27.0,27.0,-100.00,West,275,3.0,5.0,99,-99.99,,,-99.99,,2013-01-01 07:42:00,
2013-01-01 02:52:00,27.0,27.0,-100.00,West,280,2.0,4.0,99,-99.99,,,-99.99,,2013-01-01 07:52:00,
2013-01-01 03:02:00,27.0,27.0,-100.00,WNW,295,3.0,6.0,99,-99.99,,,-99.99,,2013-01-01 08:02:00,
2013-01-01 03:12:00,27.0,27.0,-100.00,WNW,290,2.0,6.0,99,-99.99,,,-99.99,,2013-01-01 08:12:00,
2013-01-01 03:22:00,27.0,27.0,-100.00,NW,305,4.0,6.0,99,-99.99,,,-99.99,,2013-01-01 08:22:00,
2013-01-01 03:32:00,27.0,27.0,-100.00,WNW,300,4.0,5.0,99,-99.99,,,-99.99,,2013-01-01 08:32:00,
2013-01-01 03:42:00,27.0,27.0,-100.00,West,280,3.0,7.0,99,-99.99,,,-99.99,,2013-01-01 08:42:00,
2013-01-01 03:53:00,27.0,27.0,-100.00,WNW,300,3.0,5.0,99,-99.99,,,-99.99,,2013-01-01 08:53:00,
2013-01-01 04:02:00,27.0,27.0,-100.00,WNW,285,3.0,6.0,99,-99.99,,,-99.99,,2013-01-01 09:02:00,
2013-01-01 04:12:00,27.0,27.0,-100.00,West,275,3.0,4.0,99,-99.99,,,-99.99,,2013-01-01 09:12:00,
2013-01-01 04:22:00,27.0,27.0,-100.00,West,275,4.0,6.0,99,-99.99,,,-99.99,,2013-01-01 09:22:00,
2013-01-01 04:32:00,27.0,27.0,-100.00,West,265,2.0,6.0,99,-99.99,,,-99.99,,2013-01-01 09:32:00,
2013-01-01 04:42:00,27.0,27.0,-100.00,WNW,290,3.0,5.0,99,-99.99,,,-99.99,,2013-01-01 09:42:00,
2013-01-01 04:52:00,27.0,27.0,-100.00,NW,305,4.0,6.0,99,-99.99,,,-99.99,,2013-01-01 09:52:00,
2013-01-01 05:02:00,27.0,27.0,-100.00,WNW,295,2.0,5.0,99,-99.99,,,-99.99,,2013-01-01 10:02:00,
2013-01-01 05:12:00,27.0,27.0,-100.00,WNW,295,4.0,6.0,99,-99.99,,,-99.99,,2013-01-01 10:12:00,
2013-01-01 05:22:00,27.0,27.0,-100.00,NW,310,3.0,6.0,99,-99.99,,,-99.99,,2013-01-01 10:22:00,
2013-01-01 05:33:00,27.0,27.0,-100.00,NW,320,4.0,6.0,99,-99.99,,,-99.99,,2013-01-01 10:33:00,
2013-01-01 05:42:00,27.0,27.0,-100.00,NW,320,4.0,7.0,99,-99.99,,,-99.99,,2013-01-01 10:42:00,
2013-01-01 05:52:00,27.0,27.0,-100.00,NW,325,2.0,6.0,99,-99.99,,,-99.99,,2013-01-01 10:52:00,
2013-01-01 06:02:00,27.0,27.0,-100.00,NW,305,3.0,6.0,99,-99.99,,,-99.99,,2013-01-01 11:02:00,
2013-01-01 06:12:00,27.0,27.0,-100.00,NW,315,3.0,4.0,99,-99.99,,,-99.99,,2013-01-01 11:12:00,
2013-01-01 06:23:00,27.0,27.0,-100.00,NW,320,4.0,4.0,99,-99.99,,,-99.99,,2013-01-01 11:23:00,
2013-01-01 06:33:00,27.0,27.0,-100.00,NNW,330,3.0,4.0,99,-99.99,,,-99.99,,2013-01-01 11:33:00,
2013-01-01 06:42:00,27.0,27.0,-100.00,NNW,340,5.0,7.0,99,-99.99,,,-99.99,,2013-01-01 11:42:00,
2013-01-01 06:53:00,27.0,27.0,-100.00,North,355,6.0,9.0,99,-99.99,,,-99.99,,2013-01-01 11:53:00,
2013-01-01 07:03:00,27.0,27.0,-100.00,NNW,340,5.0,7.0,99,-99.99,,,-99.99,,2013-01-01 12:03:00,
2013-01-01 07:12:00,27.0,26.0,-100.00,NNW,345,6.0,9.0,99,-99.99,,,-99.99,,2013-01-01 12:12:00,
2013-01-01 07:22:00,26.0,26.0,-100.00,NNW,335,3.0,9.0,99,-99.99,,,-99.99,,2013-01-01 12:22:00,
2013-01-01 07:33:00,26.0,26.0,-100.00,NNW,330,2.0,5.0,99,-99.99,,,-99.99,,2013-01-01 12:33:00,
2013-01-01 07:42:00,26.0,26.0,-100.00,NNW,340,3.0,4.0,99,-99.99,,,-99.99,,2013-01-01 12:42:00,
2013-01-01 07:52:00,26.0,26.0,-100.00,NNW,330,3.0,6.0,99,-99.99,,,-99.99,,2013-01-01 12:52:00,
2013-01-01 08:03:00,26.0,26.0,-100.00,NNW,340,3.0,4.0,99,-99.99,,,-99.99,,2013-01-01 13:03:00,
2013-01-01 08:12:00,26.0,26.0,-100.00,NNW,340,4.0,6.0,99,-99.99,,,-99.99,,2013-01-01 13:12:00,
2013-01-01 08:22:00,26.0,26.0,-100.00,North,355,4.0,7.0,99,-99.99,,,-99.99,,2013-01-01 13:22:00,
2013-01-01 08:33:00,26.0,26.0,-100.00,North,350,5.0,9.0,99,-99.99,,,-99.99,,2013-01-01 13:33:00,
2013-01-01 08:42:00,26.0,26.0,-100.00,North,350,4.0,8.0,99,-99.99,,,-99.99,,2013-01-01 13:42:00,
2013-01-01 08:52:00,26.0,26.0,-100.00,North,0,3.0,7.0,99,-99.99,,,-99.99,,2013-01-01 13:52:00,
2013-01-01 09:02:00,26.0,26.0,-100.00,NNE,20,3.0,6.0,99,-99.99,,,-99.99,,2013-01-01 14:02:00,
2013-01-01 09:12:00,26.0,25.0,-100.00,North,5,5.0,7.0,99,-99.99,,,-99.99,,2013-01-01 14:12:00,
2013-01-01 09:20:00,25.0,25.0,-100.00,NNE,20,6.0,9.0,99,-99.99,,,-99.99,,2013-01-01 14:20:00,
2013-01-01 09:22:00,25.0,25.0,-100.00,North,10,7.0,9.0,99,-99.99,,,-99.99,,2013-01-01 14:22:00,
2013-01-01 09:32:00,25.0,25.0,-100.00,NNE,30,7.0,10.0,99,-99.99,,,-99.99,,2013-01-01 14:32:00,
2013-01-01 09:42:00,25.0,25.0,-100.00,NNE,20,6.0,9.0,99,-99.99,,,-99.99,,2013-01-01 14:42:00,
2013-01-01 09:53:00,25.0,25.0,-100.00,NNE,20,6.0,9.0,99,-99.99,,,-99.99,,2013-01-01 14:53:00,
2013-01-01 10:03:00,25.0,25.0,-100.00,NNE,20,6.0,9.0,99,-99.99,,,-99.99,,2013-01-01 15:03:00,
2013-01-01 10:12:00,25.0,25.0,-100.00,NNE,20,6.0,9.0,99,-99.99,,,-99.99,,2013-01-01 15:12:00,